Flag for U.S.A. Weather past 2 weeks in Grand Rapids, Michigan, U.S.A.

Now
62 °F

Clear.


Feels Like: 62 °F
Forecast: 60 / 80 °F
Wind: 7 mph from East

Location: Kent County International Airport

Current Time: Aug 29, 2014 at 1:38:44 AM

Latest Report: Aug 29, 2014 at 12:53 AM


Visibility: 10 mi

Pressure: 30.10 "Hg

Humidity: 78%

Dew point: 55 °F

Location of Grand RapidsLocation

Historic Weather in Grand Rapids — Graph

°F

Grand Rapids temperature yesterday

Maximum temperature yesterday: 73 °F (at 3:53 PM)
Minimum temperature yesterday: 53 °F (at 6:53 AM)
Average temperature yesterday: 64 °F

Past Weeks' High & Low Weather Summary

 TemperatureHumidityPressure
High85 °F (Aug 25, 12:53 PM)100% (Aug 14, 6:53 AM)30.19 "Hg (Aug 14, 6:53 AM)
Low47 °F (Aug 15, 6:53 AM)37% (Aug 15, 4:53 PM)29.71 "Hg (Aug 19, 7:53 PM)
Average70 °F83%29.98 "Hg
* Reported Aug 13 11:53 PM — Aug 28 11:53 PM, Grand Rapids, Weather by CustomWeather, © 2014

Note: Actual official high and low records may vary slightly from our data, if they occured in-between our weather recording intervals... More about our weather records

Advertising

Grand Rapids weather history for previous 24 hours

 ConditionsComfort  
Time TempWeatherWind HumidityBarometerVisibility
11:53 PM
Aug 28
62 °FPassing clouds.7 mph78%30.10 "Hg10 mi
10:53 PM63 °FOvercast.6 mph78%30.11 "Hg10 mi
9:53 PM65 °FOvercast.6 mph76%30.11 "Hg10 mi
8:53 PM66 °FPartly sunny.6 mph75%30.10 "Hg10 mi
7:53 PM68 °FPartly sunny.6 mph68%30.11 "Hg10 mi
6:53 PM72 °FPartly sunny.6 mph55%30.11 "Hg10 mi
5:53 PM72 °FPartly sunny.7 mph55%30.11 "Hg10 mi
4:53 PM72 °FPartly sunny.5 mph52%30.12 "Hg10 mi
3:53 PM73 °FPartly sunny.No wind53%30.13 "Hg10 mi
2:53 PM72 °FScattered clouds.6 mph53%30.14 "Hg10 mi
1:53 PM71 °FPassing clouds.9 mph57%30.16 "Hg10 mi
12:53 PM69 °FPassing clouds.9 mph57%30.17 "Hg10 mi
11:53 AM67 °FPassing clouds.10 mph61%30.18 "Hg10 mi
10:53 AM66 °FPassing clouds.7 mph65%30.19 "Hg10 mi
9:53 AM62 °FPassing clouds.9 mph73%30.19 "Hg10 mi
8:53 AM59 °FPassing clouds.9 mph81%30.18 "Hg10 mi
7:53 AM55 °FPassing clouds.6 mph90%30.18 "Hg10 mi
6:53 AM53 °FPassing clouds.7 mph93%30.17 "Hg10 mi
5:53 AM54 °FClear.5 mph97%30.17 "Hg10 mi
4:53 AM55 °FClear.6 mph96%30.16 "Hg10 mi
3:53 AM56 °FClear.5 mph97%30.16 "Hg10 mi
2:53 AM57 °FClear.6 mph96%30.15 "Hg10 mi
1:53 AM58 °FClear.5 mph100%30.15 "Hg10 mi
Weather by CustomWeather, © 2014

See weather overviewHow to use our weather pages